| time (UTC) | temp F | wind direction | speed MPH | gust MPH | rain 1hr in | rain 24hr in | rain mn in | humidity % | barometer mb |
| 20260504081528 | 53 | 30 | 0.0 | 0.0 | 0.00 | 0.00 | 0.00 | 42 | 1008.8 |
| 20260504044548 | 58 | 30 | 0.0 | 0.0 | 0.00 | 0.00 | 0.01 | 33 | 1008.5 |
| 20260504043048 | 59 | 30 | 0.0 | 0.0 | 0.00 | 0.00 | 0.01 | 33 | 1008.6 |
| 20260504041547 | 60 | 30 | 0.0 | 0.0 | 0.00 | 0.00 | 0.01 | 31 | 1008.5 |
| 20260504040110 | 61 | 30 | 0.0 | 0.0 | 0.00 | 0.00 | 0.01 | 29 | 1008.4 |
| 20260504034547 | 62 | 30 | 0.0 | 0.0 | 0.00 | 0.00 | 0.01 | 28 | 1008.4 |
| 20260504033035 | 63 | 30 | 0.0 | 0.0 | 0.00 | 0.00 | 0.01 | 26 | 1008.2 |
| 20260504031536 | 63 | 30 | 0.0 | 0.0 | 0.00 | 0.00 | 0.01 | 27 | 1008.1 |
| 20260504030033 | 64 | 30 | 0.0 | 0.0 | 0.00 | 0.00 | 0.01 | 24 | 1008.1 |
| 20260504024533 | 65 | 30 | 0.0 | 0.0 | 0.00 | 0.00 | 0.01 | 24 | 1007.9 |
| 20260504023032 | 66 | 30 | 0.0 | 0.0 | 0.00 | 0.00 | 0.01 | 25 | 1007.8 |
| 20260504021532 | 67 | 30 | 0.0 | 0.0 | 0.00 | 0.00 | 0.01 | 25 | 1007.8 |
| 20260504020031 | 68 | 30 | 0.0 | 0.0 | 0.00 | 0.00 | 0.01 | 23 | 1007.8 |
| 20260504014529 | 69 | 30 | 0.0 | 0.0 | 0.00 | 0.00 | 0.01 | 23 | 1007.9 |
| 20260504013017 | 70 | 30 | 0.0 | 0.0 | 0.00 | 0.00 | 0.01 | 24 | 1008.1 |
| 20260504011515 | 71 | 30 | 0.0 | 0.0 | 0.00 | 0.00 | 0.01 | 17 | 1008.3 |
| 20260504010013 | 72 | 30 | 0.0 | 0.0 | 0.00 | 0.00 | 0.01 | 15 | 1008.4 |
| 20260504004513 | 73 | 30 | 0.0 | 0.0 | 0.00 | 0.00 | 0.00 | 17 | 1008.5 |
| 20260504003012 | 73 | 30 | 0.0 | 0.0 | 0.00 | 0.00 | 0.00 | 17 | 1008.5 |
| 20260504001511 | 73 | 30 | 0.0 | 0.0 | 0.00 | 0.00 | 0.00 | 17 | 1008.6 |
| 20260504000010 | 73 | 30 | 0.0 | 0.0 | 0.00 | 0.00 | 0.00 | 16 | 1008.7 |
| 20260503234510 | 73 | 30 | 0.0 | 0.0 | 0.00 | 0.00 | 0.00 | 14 | 1008.8 |
| 20260503233108 | 73 | 30 | 0.0 | 0.0 | 0.00 | 0.00 | 0.00 | 17 | 1008.8 |
| 20260503231555 | 73 | 30 | 0.0 | 0.0 | 0.00 | 0.00 | 0.00 | 14 | 1009.0 |
| 20260503224552 | 74 | 30 | 0.0 | 0.0 | 0.00 | 0.00 | 0.00 | 13 | 1009.4 |
| 20260503223050 | 75 | 30 | 0.0 | 0.0 | 0.00 | 0.00 | 0.00 | 14 | 1009.7 |
| 20260503221553 | 76 | 30 | 0.0 | 0.0 | 0.00 | 0.00 | 0.00 | 12 | 1009.9 |
| 20260503220045 | 76 | 30 | 0.0 | 0.0 | 0.00 | 0.00 | 0.00 | 17 | 1010.2 |
| 20260503214542 | 76 | 30 | 0.0 | 0.0 | 0.00 | 0.00 | 0.00 | 15 | 1010.7 |
| 20260503213040 | 76 | 30 | 0.0 | 0.0 | 0.00 | 0.00 | 0.00 | 13 | 1011.1 |
| 20260503211525 | 75 | 30 | 0.0 | 0.0 | 0.00 | 0.00 | 0.00 | 14 | 1011.4 |
| 20260503210022 | 75 | 30 | 0.0 | 0.0 | 0.00 | 0.00 | 0.00 | 14 | 1011.8 |
| 20260503204526 | 75 | 30 | 0.0 | 0.0 | 0.00 | 0.00 | 0.00 | 14 | 1012.1 |
| 20260503203018 | 74 | 30 | 0.0 | 0.0 | 0.00 | 0.00 | 0.00 | 14 | 1012.2 |
| 20260503201516 | 74 | 30 | 0.0 | 0.0 | 0.00 | 0.00 | 0.00 | 16 | 1012.5 |
| 20260503200012 | 73 | 30 | 0.0 | 0.0 | 0.00 | 0.00 | 0.00 | 14 | 1012.8 |
| 20260503194509 | 73 | 30 | 0.0 | 0.0 | 0.00 | 0.00 | 0.00 | 15 | 1013.1 |
| 20260503193015 | 72 | 30 | 0.0 | 0.0 | 0.00 | 0.00 | 0.00 | 18 | 1013.2 |
| 20260503191603 | 71 | 30 | 0.0 | 0.0 | 0.00 | 0.00 | 0.00 | 20 | 1013.5 |
| 20260503190048 | 71 | 30 | 0.0 | 0.0 | 0.00 | 0.00 | 0.00 | 19 | 1013.7 |
| 20260503184545 | 71 | 30 | 0.0 | 0.0 | 0.00 | 0.00 | 0.00 | 21 | 1014.1 |
| 20260503183058 | 70 | 30 | 0.0 | 0.0 | 0.00 | 0.00 | 0.00 | 26 | 1014.2 |
| 20260503181554 | 69 | 30 | 0.0 | 0.0 | 0.00 | 0.00 | 0.00 | 23 | 1014.6 |
| 20260503180037 | 67 | 5 | 0.0 | 0.0 | 0.00 | 0.00 | 0.00 | 25 | 1014.7 |
| 20260503174533 | 65 | 5 | 0.0 | 0.0 | 0.00 | 0.00 | 0.00 | 30 | 1014.8 |
| 20260503173029 | 64 | 5 | 0.0 | 0.0 | 0.00 | 0.00 | 0.00 | 30 | 1015.0 |
| 20260503171521 | 63 | 5 | 0.0 | 0.0 | 0.00 | 0.00 | 0.00 | 32 | 1015.2 |